Terminal Aerodrome Forecast
Issued by NWS

Home | Current Version | Previous Version | Graphics & Text | Print | Product List | Glossary On
Versions: 1 2 3 4 5 6 7 8 9 10 11 12 13 14
000
FTUS43 KGRB 301727
TAFAUW
TAF
KAUW 301727Z 3018/0118 19005KT P6SM VCSH SCT009 OVC018
      TEMPO 3018/3021 5SM -RASN BR BKN009
     FM302100 23004KT 4SM -RASN BR OVC011
     FM010000 27003KT 5SM -RASN BR OVC010
     FM010300 30004KT 5SM -SN BR OVC008
     FM011100 30007KT 5SM BR VCSH OVC006
     FM011500 30009KT P6SM BKN012 OVC050=

USA.gov is the U.S. government's official web portal to all federal, state and local government web resources and services.